{"data":{"norad_id":66859,"intl_designator":"2025-281M","name":"STARLINK-35646","alt_names":[],"object_type":"PAYLOAD","status":"ACTIVE","operator":null,"country":"US","launch_date":"2025-12-02","launch_site_code":"AFETR","launch_vehicle":null,"mission":null,"orbit_class":"UNKNOWN","rcs_meters":null,"size_class":null,"mass_kg":null,"dimensions":null,"purposes":["comms"],"wikipedia_slug":null,"has_3d_model":false,"image_url":null,"decayed_at":null,"tle_current":{"epoch":"2026-05-25T01:15:15.499008Z","epoch_age_seconds":74061,"freshness":"FRESH","line1":"1 66859U 25281M   26145.05226272  .00015471  00000+0  57033-3 0  9994","line2":"2 66859  43.0014 272.2627 0000878 304.3165  55.7603 15.27592674 27868","mean_motion":15.27592674,"eccentricity":8.78e-5,"inclination_deg":43.0014,"raan_deg":272.2627,"arg_perigee_deg":304.3165,"mean_anomaly_deg":55.7603,"bstar":0.00057033,"rev_number":2786,"period_min":94.265966609369,"perigee_km":482.40873697939,"apogee_km":483.61355459379,"semimajor_km":6861.1481457866,"source":"CELESTRAK","updated_at":"2026-05-25T13:38:21.342372Z"}}}